Time,TemperatureF,DewpointF,PressureIn,WindDirection,WindDirectionDegrees,WindSpeedMPH,WindSpeedGustMPH,Humidity,HourlyPrecipIn,Conditions,Clouds,dailyrainin,SoftwareType,DateUTC
2013-02-12 15:13:00,41.3,26.8,30.10,WNW,285,0.0,3.0,56,0.00,,---,0.00,VWS V12.07,2013-02-12 21:13:00,
2013-02-12 16:04:00,41.9,27.8,30.05,SSW,212,1.0,2.0,57,0.00,,---,0.00,VWS V12.07,2013-02-12 22:04:00,
2013-02-12 16:44:00,40.7,28.7,30.05,SW,229,0.0,4.0,62,0.00,,---,0.00,VWS V12.07,2013-02-12 22:44:00,
2013-02-12 17:24:00,38.7,27.2,30.03,SW,226,0.0,0.0,63,0.00,,---,0.00,VWS V12.07,2013-02-12 23:24:00,
2013-02-12 17:44:00,37.8,27.1,30.04,SW,226,0.0,0.0,65,0.00,,---,0.00,VWS V12.07,2013-02-12 23:44:00,
2013-02-12 18:04:00,36.2,26.3,30.04,SW,227,0.0,0.0,67,0.00,,---,0.00,VWS V12.07,2013-02-13 00:04:00,
2013-02-12 18:24:00,35.2,26.1,30.03,SW,226,0.0,0.0,69,0.00,,---,0.00,VWS V12.07,2013-02-13 00:24:00,
2013-02-12 18:34:00,35.4,26.6,30.03,SW,226,0.0,0.0,70,0.00,,---,0.00,VWS V12.07,2013-02-13 00:34:00,
2013-02-12 18:54:00,35.3,27.9,30.03,SW,226,0.0,0.0,74,0.00,,---,0.00,VWS V12.07,2013-02-13 00:54:00,
2013-02-12 19:14:00,35.3,27.9,30.02,SW,226,0.0,0.0,74,0.00,,---,0.00,VWS V12.07,2013-02-13 01:14:00,
2013-02-12 19:56:00,35.1,28.3,30.02,SSW,212,0.0,0.0,76,0.00,,---,0.00,VWS V12.07,2013-02-13 01:56:00,
2013-02-12 21:05:00,34.1,28.3,30.02,West,270,0.0,0.0,79,0.00,,---,0.00,VWS V12.07,2013-02-13 03:05:00,
2013-02-12 21:17:00,34.0,28.2,30.02,West,270,0.0,0.0,79,0.00,,---,0.00,VWS V12.07,2013-02-13 03:17:00,
2013-02-12 21:35:00,34.3,28.5,30.02,NW,311,0.0,2.0,79,0.00,,---,0.00,VWS V12.07,2013-02-13 03:35:00,
2013-02-12 21:45:00,34.1,28.6,30.02,WNW,284,0.0,2.0,80,0.00,,---,0.00,VWS V12.07,2013-02-13 03:45:00,
2013-02-12 21:55:00,34.1,28.3,30.02,WNW,283,0.0,2.0,79,0.00,,---,0.00,VWS V12.07,2013-02-13 03:55:00,
2013-02-12 22:14:00,33.9,28.1,30.01,WNW,302,0.0,2.0,79,0.00,,---,0.00,VWS V12.07,2013-02-13 04:14:00,
2013-02-12 22:45:00,33.5,27.7,30.01,West,270,0.0,2.0,79,0.00,,---,0.00,VWS V12.07,2013-02-13 04:45:00,
2013-02-12 23:05:00,32.2,27.3,30.01,West,273,0.0,0.0,82,0.00,,---,0.00,VWS V12.07,2013-02-13 05:05:00,
2013-02-12 23:15:00,32.2,27.6,30.01,WNW,283,0.0,1.0,83,0.00,,---,0.00,VWS V12.07,2013-02-13 05:15:00,
2013-02-12 23:24:00,32.3,28.0,30.00,West,271,0.0,1.0,84,0.00,,---,0.00,VWS V12.07,2013-02-13 05:24:00,